星链-31274 (STARLINK-31274 )

导读 | 星芒AI

STARLINK-31274 是 SpaceX Starlink 卫星互联网项目中的第 31274 颗卫星。该卫星属于 Starlink 群体,旨在通过低地球轨道提供全球高速互联网服务。它于近期由猎鹰 9 号火箭发射入轨,加入 Starlink 通信网络。该卫星采用先进推进和通信技术,支持高速、低延迟的互联网连接,主要用于偏远地区和传统网络难以覆盖的区域。Starlink 项目致力于构建全球覆盖的卫星互联网系统,推动全球数字连接。

基本信息
目录编号:
59078
目录名称:
STARLINK-31274
国际标识:
2024-041E
轨道中心:
EARTH
卫星名称:
星链-31274
卫星全名:
星链-31274 (STARLINK-31274 )
卫星状态:
在轨 (已飞行613 天)
发射日期:
2024-02-29 UTC
国别 :
美国 (US)
星等 :
--
轨道信息
数据来源 国际轨道数据
星历时间: 2025-11-02T08:13:52+0800
1天前
查看轨道信息
半长轴: 6861.245km
偏心率: 0.0001708
轨道倾角: 43.005°
近地点辐角 277.662°
升交点赤经 311.849°
平近点角 82.404°
近地点: 481.938km
远地点: 484.282km
周期: 94.268分钟
每日圈数: 15.275605
详细信息
固有亮度:
5
最大亮度:
0.3
卫星平台:
Starlink v2.0 mini
覆盖范围:
全球
运营商:
太空探索技术公司
运营商所在国:
美国
制造商(研发单位):
太空探索技术公司
制造商所在国:
美国
使用方式:
暂无
卫星简介
星链(Starlink)计划是由太空探索技术公司(SpaceX)提出的一个巨型低轨卫星互联网星座项目,计划在2019年至2024年间在太空搭建由约1.2万颗卫星组成的“星链”网络,其中1584颗将部署在地球上空550千米处的近地轨道,并从2020年开始工作。该卫星仍在工作。
2D轨道图
3D轨道图
轨道高度分析图
轨道倾角分析图
轨道综合分析图
查看轨道综合分析图